This is the latest recevied weather packets stored in our database for station/object K4AMF. If no packets are shown the sender has not sent any weather packets the latest 10 day(s).
| Time | Temp. | Humidity | Pressure | Rain* | Wind** | Luminosity | Snow |
|---|---|---|---|---|---|---|---|
| 1777675957 | 28.89° C | 60% | 1010.5 hPa | 0 mm | - | 32 W/m² | - |
| 1777675653 | 28.89° C | 59% | 1010.3 hPa | 0 mm | - | 19 W/m² | - |
| 1777675351 | 28.89° C | 59% | 1010.5 hPa | 0 mm | - | 16 W/m² | - |
| 1777675047 | 28.89° C | 59% | 1010.3 hPa | 0 mm | - | 13 W/m² | - |
| 1777674744 | 28.89° C | 59% | 1010.2 hPa | 0 mm | - | 15 W/m² | - |
| 1777674440 | 28.89° C | 60% | 1010.3 hPa | 0 mm | - | 24 W/m² | - |
| 1777674138 | 28.89° C | 61% | 1010.3 hPa | 0 mm | - | 28 W/m² | - |
| 1777673834 | 28.89° C | 61% | 1010 hPa | 0 mm | - | 29 W/m² | - |
| 1777673531 | 28.89° C | 61% | 1010.1 hPa | 0 mm | - | 30 W/m² | - |
| 1777673228 | 28.89° C | 61% | 1010 hPa | 0 mm | - | 34 W/m² | - |
| 1777672926 | 28.89° C | 61% | 1010 hPa | 0 mm | - | 42 W/m² | - |
| 1777672623 | 28.89° C | 60% | 1010.1 hPa | 0 mm | - | 58 W/m² | - |
| 1777672317 | 28.89° C | 61% | 1010.3 hPa | 0 mm | - | 70 W/m² | - |
| 1777672013 | 28.89° C | 60% | 1010.4 hPa | 0 mm | - | 99 W/m² | - |
| 1777671708 | 28.89° C | 60% | 1010.4 hPa | 0 mm | - | 122 W/m² | - |
| 1777671406 | 28.89° C | 61% | 1010.3 hPa | 0 mm | - | 84 W/m² | - |
| 1777671101 | 28.89° C | 60% | 1010.4 hPa | 0 mm | - | 76 W/m² | - |
| 1777670798 | 29.44° C | 59% | 1010.4 hPa | 0 mm | - | 84 W/m² | - |
| 1777670495 | 29.44° C | 60% | 1010.1 hPa | 0 mm | - | 153 W/m² | - |
| 1777670191 | 29.44° C | 59% | 1010.1 hPa | 0 mm | - | 311 W/m² | - |
| 1777669889 | 29.44° C | 60% | 1010.2 hPa | 0 mm | - | 212 W/m² | - |
| 1777669586 | 30° C | 59% | 1009.7 hPa | 0 mm | - | 480 W/m² | - |
| 1777669282 | 30° C | 58% | 1009.9 hPa | 0 mm | - | 384 W/m² | - |
| 1777668979 | 29.44° C | 58% | 1009.8 hPa | 0 mm | - | 248 W/m² | - |
| 1777668677 | 30° C | 59% | 1010.1 hPa | 0 mm | - | 249 W/m² | - |
* Rain latest hour (hover to see other rain measurements)
** Current wind speed in m/s (hover to see current wind gust speed)